Regional Weather Roundup
Issued by NWS

Home | Current Version | Previous Version | Graphics & Text | Print | Product List | Glossary Off
Versions: 1 2 3 4 5 6 7 8 9 10 11 12 13 14 15 16 17 18 19 20 21 22 23 24 25 26 27

000
ASUS45 KCYS 250210
RWRWY

WYOMING REGIONAL WEATHER ROUNDUP
NATIONAL WEATHER SERVICE CHEYENNE WY
800 PM MDT THU APR 24 2014

NOTE:  "FAIR" INDICATES FEW OR NO CLOUDS BELOW 12,000 FEET
WITH NO SIGNIFICANT WEATHER AND/OR OBSTRUCTIONS TO VISIBILITY.

WYZ001-250300-
YELLOWSTONE NATIONAL PARK

CITY           SKY/WX    TMP DP  RH WIND       PRES   REMARKS
LK YELLOWSTONE   N/A     31  30  96 CALM      29.95S
W YELLOWSTONE  NOT AVBL

$$
WYZ002>013-054>058-071-098>099-250300-
NORTHERN WYOMING

CITY           SKY/WX    TMP DP  RH WIND       PRES   REMARKS
JACKSON        NOT AVBL
CODY           MOCLDY    48  27  43 N6        29.85R
GREYBULL       MOCLDY    58  24  27 W17       29.79R
WORLAND        CLOUDY    58  22  24 NW15      29.79R
SHERIDAN         N/A     48  23  37 W20G31      N/A
BUFFALO        PTCLDY    51  26  37 CALM      29.81R
GILLETTE       CLOUDY    51  26  37 NE7       29.77S
HULETT         CLOUDY    52  27  37 NE3       29.79
NEWCASTLE      FAIR      55  16  21 CALM      29.76

$$
WYZ014>020-022>026-101>103-250300-
CENTRAL WYOMING

CITY           SKY/WX    TMP DP  RH WIND       PRES   REMARKS
BIG PINEY      CLOUDY    45  21  38 W10       30.00S
PINEDALE       CLOUDY    41  27  56 N6        30.00S
DUBOIS         FAIR      37  25  60 NW12G18   29.94R WCI  30
LANDER         MOCLDY    52  21  29 NW5       29.86R
RIVERTON       CLOUDY    51  21  30 NW15      29.88R
CASPER         CLOUDY    54  22  28 NW15      29.82R
DOUGLAS        CLOUDY    57  25  29 W15       29.78S

$$
WYZ021-027>030-104>119-250300-
SOUTHERN WYOMING

CITY           SKY/WX    TMP DP  RH WIND       PRES   REMARKS
EVANSTON       MOCLDY    46  21  37 W10       30.00S
KEMMERER       CLOUDY    43  19  39 W12       30.00S
FORT BRIDGER   FAIR      48  22  36 W15       30.01S
ROCK SPRINGS   NOT AVBL
DIXON          CLOUDY    52  21  29 W9        30.01R
RAWLINS        MOCLDY    50  20  30 W28G36    29.94R
SARATOGA       CLOUDY    50  21  32 W15G24    29.99R
LARAMIE        CLOUDY    48  18  30 SW14      29.94S
CHEYENNE       MOCLDY    53  19  26 SW8       29.91R
TORRINGTON     CLOUDY    58  23  26 W6        29.79S
PINE BLUFFS    MOCLDY    55  23  28 W10       29.89S

$$



USA.gov is the U.S. government's official web portal to all federal, state and local government web resources and services.